Showing default

FTV 3502, 369

Orbit data source: Space-Track

FTV 3502, 369 is a payload satellite owned by SAFSP (US) in SSO that was launched on Thu, 23 Aug 1962 UTC via an SCOUT X-2M launch vehicle from the Air Force Western Test Range (AFWTR). Payload-class satellites include a variety of spacecraft equipped with specific instruments for various scientific and technological missions. These include communications satellites like Starlink; space stations such as the ISS; scientific satellites like the Hubble; Earth observation satellites from companies like Planet Labs, Umbra, and HawkEye 360; GPS; miniature CubeSats for education and research; and military/defense satellites.

Loading next visibility...
Identifier
369, 1962-039A
Orbit
SSO
Country
Flag of USUS
Related business
Manufacturer
RCA/East Windsor
Mission
Spacecraft
Bus & Motor
P35, Unknown motor
Mass
50 kg wet, 50 kg dry
Launch date (UTC)
1962-08-23 (63 years ago)
Launch vehicle
SCOUT X-2M
Launch site
Air Force Western Test Range (AFWTR)
Object type
Payload
Rocket body
Debris
Shape & HBR
Unknown
Radar Cross Section
Medium (>0.1 m² and <1 m²)

Expand to show TLE details & history
Last TLE update: 1 day ago

TLE from 1 day ago
0 FTV 3502
1 00369U 62039A   25301.61898840  .00002423  00000-0  23540-3 0  9991
2 00369  98.4833   3.8802 0080814 161.0031 199.4231 14.91271798381087
Epoch: 2025-10-28T14:51Z
TLE epoch observation values (Epoch: 2025-10-28T14:51:20.597Z)
Latitude
0.00002°
Longitude
103.84049°
Altitude
650.187 km
Speed
7.504 km/s
True Right ascension
00h 15m 31s
True Declination
0° 00' 00"
Sunlit
Object was in full shadow at epoch
Visualization orbit readout
Latitude
Unknown
Longitude
Unknown
Altitude
Unknown
Speed
Unknown
Apparent Right ascension
Unknown
Apparent Declination
Unknown
Sunlit
N/A
Visualization observer readout
Local Sidereal Time
10:13:58
Azimuth
Unknown
Elevation
Unknown
Doppler factor
Unknown
Orbital elements
Apogee altitude
647.342 km
Perigee altitude
534.701 km
Semi-major axis
6,969.159 km
Eccentricity
0.00808
Inclination
98.4833°
RAAN
3.8802°
Arg. of periapsis
161.0031°
True anomaly
199.11806°
Mean anomaly
199.4231°
Eccentric anomaly
199.27029°
Mean motion
3.73055 °/min
Orbital period
96.5 mins
BSTAR
0.0002354
Loading maneuver chart data...
Computing Atmospheric mass density...
Loading historical data...
Loading historical data...
Loading historical data...
Loading historical data...
Loading historical data...
Loading historical data...
Loading historical data...
Other satellites on launch #39 in the year 1962 (1962-08-23 UTC)

Documentation

Showing up to 5 results
|